EW4983 Weather Reports


Display with metric or nautical units.
time (UTC)temp
F
wind
direction
speed
MPH
gust
MPH
rain 1hr
in
rain 24hr
in
rain mn
in
humidity
%
barometer
mb
20260507081511 41 42 0.0 3.0 0.00 0.01 0.00 88 1017.8
20260507080007 41 40 0.0 1.0 0.00 0.01 0.00 87 1018.0
20260507074515 41 40 0.0 1.0 0.00 0.01 0.00 87 1017.8
20260507073005 41 40 0.0 1.0 0.00 0.01 0.00 87 1018.0
20260507071504 41 40 0.0 1.0 0.00 0.01 0.00 87 1018.2
20260507064559 41 40 0.0 0.0 0.00 0.01 0.00 85 1018.6
20260507063059 42 40 0.0 2.0 0.00 0.01 0.00 85 1018.8
20260507061555 42 40 0.0 0.0 0.00 0.01 0.00 85 1018.6
20260507060054 42 40 0.0 1.0 0.00 0.01 0.00 85 1018.8
20260507054603 42 40 0.0 2.0 0.00 0.01 0.00 85 1018.6
20260507053055 42 40 0.0 1.0 0.00 0.01 0.00 84 1018.6
20260507051549 43 40 0.0 1.0 0.00 0.01 0.00 83 1018.6
20260507050047 43 40 0.0 1.0 0.00 0.01 0.00 82 1018.5
20260507044546 43 40 0.0 1.0 0.00 0.01 0.01 82 1018.6
20260507043045 43 40 0.0 1.0 0.00 0.01 0.01 83 1018.5
20260507041546 43 40 0.0 0.0 0.00 0.01 0.01 83 1018.4
20260507040057 43 40 0.0 0.0 0.00 0.01 0.01 82 1018.5
20260507034554 44 40 0.0 1.0 0.00 0.03 0.01 81 1018.4
20260507033045 44 40 0.0 0.0 0.00 0.03 0.01 80 1018.4
20260507031544 45 40 0.0 1.0 0.00 0.03 0.01 79 1018.3
20260507030043 45 40 0.0 0.0 0.00 0.03 0.01 78 1018.3
20260507024543 46 40 0.0 0.0 0.00 0.09 0.01 76 1018.3
20260507023042 46 39 0.0 0.0 0.00 0.09 0.01 73 1018.1
20260507021545 47 39 0.0 0.0 0.00 0.09 0.01 73 1018.1
20260507020045 49 39 0.0 1.0 0.00 0.09 0.01 72 1017.7
20260507014542 50 39 0.0 0.0 0.00 0.10 0.01 68 1017.6
20260507013040 51 39 0.0 0.0 0.00 0.10 0.01 62 1017.5
20260507011546 54 39 0.0 1.0 0.00 0.10 0.01 59 1017.4
20260507010039 55 39 0.0 2.0 0.00 0.10 0.01 57 1017.3
20260507004541 56 38 0.0 5.0 0.00 0.10 0.01 56 1017.2
20260507003037 57 33 2.0 5.0 0.00 0.10 0.01 50 1017.1
20260507001548 58 36 2.0 9.0 0.00 0.10 0.01 46 1016.8
20260507000040 59 41 3.0 14.0 0.00 0.10 0.01 50 1016.7
20260506234543 59 346 1.0 12.0 0.00 0.10 0.01 48 1016.6
20260506233035 59 36 2.0 13.0 0.00 0.10 0.01 51 1016.6
20260506231537 60 343 3.0 12.0 0.00 0.10 0.01 47 1016.4
20260506230034 60 16 4.0 14.0 0.00 0.10 0.01 45 1016.6
20260506224534 61 27 6.0 11.0 0.00 0.10 0.01 45 1016.4
20260506223032 61 33 5.0 14.0 0.00 0.10 0.01 46 1016.4
20260506221532 61 42 2.0 11.0 0.00 0.10 0.01 47 1016.6
20260506220032 61 27 5.0 11.0 0.00 0.10 0.01 45 1016.6
20260506214531 61 318 4.0 11.0 0.00 0.10 0.01 49 1016.8
20260506213030 61 47 3.0 13.0 0.00 0.10 0.01 46 1016.6
20260506211531 61 54 3.0 9.0 0.00 0.10 0.01 47 1016.8
20260506210030 62 71 2.0 12.0 0.00 0.10 0.01 52 1016.9
20260506204533 61 48 3.0 13.0 0.00 0.10 0.01 48 1016.9
20260506203034 62 5 3.0 13.0 0.00 0.10 0.01 52 1017.1
20260506201527 61 252 5.0 13.0 0.00 0.10 0.01 46 1017.2
20260506200026 61 34 3.0 11.0 0.00 0.10 0.01 50 1017.4
20260506194525 60 333 4.0 13.0 0.00 0.10 0.01 49 1017.6
20260506193024 60 314 4.0 10.0 0.00 0.10 0.01 53 1017.7
20260506191523 60 13 5.0 11.0 0.00 0.10 0.01 47 1018.1
20260506190032 61 28 3.0 12.0 0.00 0.10 0.01 56 1018.2
20260506184522 60 44 5.0 12.0 0.00 0.10 0.01 49 1018.5
20260506183019 60 302 3.0 9.0 0.01 0.10 0.01 61 1018.2
20260506181520 58 28 3.0 15.0 0.01 0.10 0.01 55 1018.6
20260506180018 60 331 2.0 9.0 0.01 0.10 0.01 57 1018.8
20260506174518 55 320 5.0 13.0 0.01 0.10 0.01 57 1018.9
20260506173016 56 9 2.0 12.0 0.00 0.09 0.00 57 1019.1
20260506171517 58 5 6.0 14.0 0.00 0.09 0.00 55 1019.3
20260506170014 57 360 3.0 13.0 0.00 0.09 0.00 57 1019.2
20260506164514 58 24 1.0 11.0 0.00 0.09 0.00 62 1019.1
20260506163012 56 338 3.0 10.0 0.00 0.09 0.00 61 1018.6
20260506161507 55 47 3.0 7.0 0.00 0.09 0.00 60 1018.3
20260506160005 55 19 4.0 9.0 0.00 0.09 0.00 63 1018.0
20260506154516 55 53 2.0 7.0 0.00 0.09 0.00 66 1018.0
20260506153134 54 36 3.0 9.0 0.00 0.09 0.00 64 1018.2
20260506151559 53 50 3.0 6.0 0.00 0.09 0.00 66 1018.1
20260506150056 52 49 2.0 6.0 0.00 0.09 0.00 67 1017.7
20260506144554 51 54 3.0 6.0 0.00 0.09 0.00 70 1017.8
20260506143051 51 56 2.0 4.0 0.00 0.09 0.00 72 1017.9
20260506141549 50 56 1.0 5.0 0.00 0.09 0.00 76 1017.9
20260506140046 49 57 1.0 5.0 0.00 0.09 0.00 79 1018.1
20260506134542 48 59 0.0 7.0 0.00 0.09 0.00 83 1017.8
20260506133042 47 60 2.0 5.0 0.00 0.09 0.00 84 1017.7
20260506131537 46 61 0.0 5.0 0.00 0.09 0.00 88 1017.5
20260506130033 45 140 1.0 3.0 0.00 0.09 0.00 91 1017.5
20260506124531 44 140 1.0 7.0 0.00 0.09 0.00 91 1017.4
20260506123029 44 43 2.0 5.0 0.00 0.09 0.00 92 1017.4
20260506121527 43 51 1.0 4.0 0.00 0.09 0.00 92 1017.0
20260506120026 43 34 1.0 6.0 0.00 0.09 0.00 93 1017.0
20260506114525 43 26 1.0 4.0 0.00 0.09 0.00 93 1017.0
20260506113025 43 360 1.0 6.0 0.00 0.09 0.00 93 1017.0
20260506111529 43 17 1.0 8.0 0.00 0.09 0.00 93 1016.9
20260506110023 43 5 2.0 9.0 0.00 0.09 0.00 94 1017.1
20260506104521 43 347 2.0 5.0 0.00 0.09 0.00 94 1016.8
20260506103017 43 24 2.0 6.0 0.00 0.09 0.00 94 1016.2
20260506101517 44 22 1.0 5.0 0.00 0.09 0.00 94 1016.2
20260506100015 44 344 1.0 4.0 0.00 0.09 0.00 94 1015.8
20260506094513 44 22 2.0 8.0 0.00 0.09 0.00 94 1015.7
20260506093010 44 350 2.0 6.0 0.00 0.09 0.00 94 1015.3
20260506091509 44 342 0.0 6.0 0.00 0.09 0.00 94 1014.9
20260506090008 43 315 1.0 8.0 0.00 0.09 0.00 94 1015.1
20260506084507 43 315 2.0 4.0 0.00 0.09 0.00 94 1014.9
20260506083014 43 314 2.0 8.0 0.00 0.09 0.00 94 1014.6